AirNav   Phillips 66 Aviation Fuel
 
 394 users online  

06M Eupora Airport
Eupora, Mississippi, USA

GOING TO EUPORA?


FAA INFORMATION EFFECTIVE 24 MAY 2018

Location

FAA Identifier: 06M
Lat/Long: 33-32-05.4000N / 089-18-47.2000W
33-32.090000N / 089-18.786667W
33.5348333 / -89.3131111
(estimated)
Elevation: 450 ft. / 137 m (estimated)
Variation: 02E (1985)
From city: 2 miles W of EUPORA, MS
Time zone: UTC -5 (UTC -6 during Standard Time)
Zip code: 39744

Airport Operations

Airport use: Open to the public
Activation date: 04/1970
Control tower: no
ARTCC: MEMPHIS CENTER
FSS: GREENWOOD FLIGHT SERVICE STATION
NOTAMs facility: GWO (NOTAM-D service available)
Attendance: UNATNDD
Wind indicator: lighted
Segmented circle: yes
Lights: ACTIVATE MIRL RY 14/32 AND PAPI RY 14/32 - CTAF.
Beacon: white-green (lighted land airport)
Operates sunset to sunrise.

Airport Communications

CTAF: 122.9

Airport Services

Parking: tiedowns
Airframe service: NONE
Powerplant service: NONE
Bottled oxygen: NONE
Bulk oxygen: NONE

Runway Information

Runway 14/32

Dimensions: 3000 x 60 ft. / 914 x 18 m
Surface: asphalt, in good condition
Weight bearing capacity: 
Single wheel: 20.0
Runway edge lights: medium intensity
RUNWAY 14  RUNWAY 32
Latitude: 33-32.303313N33-31.877880N
Longitude: 089-18.937218W089-18.635573W
Elevation: 450.0 ft.421.0 ft.
Gradient: 0.8%0.8%
Traffic pattern: leftleft
Runway heading: 147 magnetic, 149 true327 magnetic, 329 true
Markings: basic, in good conditionbasic, in good condition
Visual slope indicator: 2-light PAPI on left (3.00 degrees glide path)2-light PAPI on left (3.00 degrees glide path)
Obstructions: 40 ft. tree, 1000 ft. from runway, 20:1 slope to clearnone

Airport Ownership and Management from official FAA records

Ownership: Publicly-owned
Owner: TOWN OF EUPORA
390 CLARK AVE
EUPORA, MS 39744
Phone 662-258-2291
Manager: LAMAR DUMAS, MAYOR
390 CLARK AVE, 102 E CLARK AVE
EUPORA, MS 39744
Phone 662-258-2291

Airport Operational Statistics

Aircraft operations: avg 29/week *
67% transient general aviation
33% local general aviation
* for 12-month period ending 27 February 2018

Instrument Procedures

There are no published instrument procedures at 06M.

Some nearby airports with instrument procedures:

5A6 - Winona-Montgomery County Airport (21 nm W)
KSTF - George M Bryan Airport (24 nm E)
KLMS - Louisville Winston County Airport (26 nm SE)
KOSX - Kosciusko-Attala County Airport (29 nm SW)
KGNF - Grenada Municipal Airport (30 nm NW)
 
Loc | Ops | Rwys | IFR | FBO | Links
Com | Nav | Svcs | Stats | Notes

AirNav Hotels Sweepstakes
 
Area around 06M (Eupora Airport)
 
Road maps at: MapQuest Bing Google
 
Aerial photo
WARNING: Photo may not be current or correct
Aerial photo of 06M (Eupora Airport)
Do you have a better or more recent aerial photo of Eupora Airport that you would like to share? If so, please send us your photo.

 
Sectional chart

 
Airport distance calculator
Flying to Eupora Airport? Find the distance to fly.

From to 06M

Sunrise and sunset
Times for 21-Jun-2018
 Local
(UTC-5)
 Zulu
(UTC)
Morning civil twilight05:2010:20
Sunrise05:4910:49
Sunset20:0901:09
Evening civil twilight20:3801:38

Current date and time
Zulu (UTC)  21-Jun-2018 07:03:27
Local (UTC-5)  21-Jun-2018 02:03:27
 
METAR
K5A6 
21nm W 
210655Z AUTO 00000KT 24/24 A2989 RMK AO2 LTG DSNT W T02360236 PWINO
KSTF 
24nm E 
210655Z AUTO 00000KT 7SM SCT027 BKN048 OVC075 23/22 A2992 RMK AO2
KGTR 
38nm E 
210656Z AUTO 14005KT 7SM -RA FEW016 SCT021 BKN030 23/23 A2991 RMK AO2 TSB28E43RAB36 SLP126 P0001 T02330228
KGWO 
39nm W 
210653Z AUTO 00000KT 7SM SCT030 24/24 A2989 RMK AO2 SLP118 T02440239
TAF
KGTR 
38nm E 
210540Z 2106/2206 15003KT P6SM VCSH BKN120 FM211200 21005KT P6SM VCSH BKN050 OVC090 FM212100 23010G19KT P6SM VCTS BKN050CB FM220100 19010KT P6SM BKN100
KGWO 
39nm W 
210540Z 2106/2206 18003KT P6SM VCTS SCT050CB BKN090 FM211600 24007KT P6SM -SHRA VCTS BKN025CB FM212000 24009KT P6SM VCTS SCT025CB BKN120 FM212100 22009KT P6SM OVC050
KCBM 
44nm E 
202335Z 2023/2123 24009KT 9999 BKN030 QNH2989INS TEMPO 2023/2024 24012G18KT 4800 -TSRA SCT020 OVC040CB BECMG 2108/2109 20006KT 9999 BKN010 BKN100 QNH2985INS BECMG 2115/2116 20009KT 9999 FEW020 SCT100 QNH2983INS BECMG 2117/2118 23012G18KT 9000 -SHRA BKN020 QNH2981INS TX30/2023Z TN20/2112Z AMD LAST NO AMDS AFT 2100 NEXT 2109
NOTAMs
Click for the latest NOTAMs
NOTAMs are issued by the DoD/FAA and will open in a separate window not controlled by AirNav.

 

 
 

Would you like to see your business listed on this page?

 If your business provides an interesting product or service to pilots, flight crews, aircraft, or users of the Eupora Airport, you should consider listing it here.  To start the listing process, click on the button below
 
Add a business
 

Other Pages about Eupora Airport

Update a link
 
Copyright © AirNav, LLC. All rights reserved. Privacy Policy  Contact